SWR49L LROP-LSZH

Flight info

Callsign SWR49L
Flight time N/A
Altitude 34000
Route SOKRU1K/08L SOKRU DCT OXDOC DCT NEKUL DCT MOPUG DCT GOTAR DCT ERKIR DCT KPT/N0435F300 L856 NEGRA
Aircraft A321/M-SDE3FGHIRWY/LB1

Departure

Time N/A
Airport Bucharest Henri Coandă International Airport (LROP)

Arrival

Time 2026-05-04 13:43
Airport Zürich Airport (LSZH)
Time Latitude Longitude Altitude Speed Heading
2026-05-04 12:37 46.74423 17.70729 34072 ft 425 kts 286°
2026-05-04 12:37 46.75166 17.66556 34073 ft 425 kts 286°
2026-05-04 12:38 46.76643 17.58214 34070 ft 424 kts 286°
2026-05-04 12:38 46.78115 17.49879 34072 ft 424 kts 286°
2026-05-04 12:39 46.79585 17.41539 34069 ft 425 kts 286°
2026-05-04 12:39 46.81051 17.33187 34074 ft 425 kts 285°
2026-05-04 12:40 46.82505 17.24836 34072 ft 425 kts 285°
2026-05-04 12:40 46.83959 17.16473 34073 ft 425 kts 285°
2026-05-04 12:41 46.85400 17.08111 34071 ft 424 kts 285°
2026-05-04 12:41 46.86807 16.99907 34072 ft 423 kts 285°
2026-05-04 12:42 46.88233 16.91554 34063 ft 423 kts 285°
2026-05-04 12:42 46.89654 16.83206 34059 ft 423 kts 285°
2026-05-04 12:43 46.91065 16.74850 34046 ft 423 kts 285°
2026-05-04 12:43 46.92470 16.66558 34042 ft 423 kts 285°
2026-05-04 12:44 46.93875 16.58210 34037 ft 423 kts 284°
2026-05-04 12:44 46.95269 16.49852 34039 ft 422 kts 284°
2026-05-04 12:45 46.96656 16.41507 34034 ft 422 kts 284°
2026-05-04 12:45 46.98039 16.33144 34034 ft 422 kts 284°
2026-05-04 12:46 46.99411 16.24784 34035 ft 422 kts 284°
2026-05-04 12:46 47.00728 16.16408 34038 ft 422 kts 283°
2026-05-04 12:47 47.01949 16.07995 34030 ft 422 kts 282°
2026-05-04 12:47 47.03152 15.99587 34031 ft 421 kts 282°
2026-05-04 12:48 47.04364 15.91184 34030 ft 421 kts 283°
2026-05-04 12:48 47.05584 15.82786 34030 ft 421 kts 282°
2026-05-04 12:49 47.06791 15.74378 34024 ft 421 kts 282°
2026-05-04 12:49 47.07995 15.65977 34027 ft 421 kts 282°
2026-05-04 12:50 47.09191 15.57573 34023 ft 421 kts 282°
2026-05-04 12:50 47.10378 15.49162 34017 ft 421 kts 282°
2026-05-04 12:51 47.11036 15.44485 34016 ft 421 kts 282°
2026-05-04 12:51 47.12214 15.36071 34022 ft 421 kts 282°
2026-05-04 12:52 47.13388 15.27653 34021 ft 421 kts 282°
2026-05-04 12:52 47.14552 15.19235 34026 ft 420 kts 282°
2026-05-04 12:53 47.15708 15.10812 34027 ft 420 kts 281°
2026-05-04 12:53 47.16864 15.02398 34029 ft 420 kts 281°
2026-05-04 12:54 47.18014 14.93984 34032 ft 420 kts 281°
2026-05-04 12:54 47.19153 14.85566 34027 ft 420 kts 281°
2026-05-04 12:55 47.20276 14.77152 34030 ft 419 kts 281°
2026-05-04 12:55 47.21401 14.68736 34028 ft 419 kts 281°
2026-05-04 12:56 47.22522 14.60321 34030 ft 419 kts 281°
2026-05-04 12:56 47.23626 14.51967 34024 ft 419 kts 280°
2026-05-04 12:57 47.24737 14.43543 34020 ft 419 kts 280°
2026-05-04 12:57 47.25832 14.35126 34020 ft 419 kts 280°
2026-05-04 12:58 47.26917 14.26706 34008 ft 419 kts 280°
2026-05-04 12:58 47.28008 14.18288 34008 ft 419 kts 280°
2026-05-04 12:59 47.29100 14.09870 34008 ft 418 kts 280°
2026-05-04 12:59 47.30171 14.01446 33995 ft 418 kts 279°
2026-05-04 13:00 47.31230 13.93022 33998 ft 418 kts 279°
2026-05-04 13:00 47.32287 13.84590 33986 ft 419 kts 279°
2026-05-04 13:01 47.33348 13.76143 33984 ft 419 kts 279°
2026-05-04 13:01 47.34224 13.69122 33984 ft 419 kts 279°
2026-05-04 13:02 47.35275 13.60653 33990 ft 420 kts 279°
2026-05-04 13:02 47.36309 13.52182 33983 ft 419 kts 279°
2026-05-04 13:03 47.37338 13.43713 33980 ft 419 kts 279°
2026-05-04 13:03 47.38367 13.35236 33984 ft 419 kts 279°
2026-05-04 13:04 47.39389 13.26770 33990 ft 420 kts 279°
2026-05-04 13:04 47.40407 13.18282 33986 ft 419 kts 278°
2026-05-04 13:05 47.41415 13.09795 33984 ft 420 kts 278°
2026-05-04 13:05 47.42419 13.01310 33987 ft 420 kts 278°
2026-05-04 13:06 47.43409 12.92870 33978 ft 420 kts 278°
2026-05-04 13:06 47.44402 12.84319 33976 ft 420 kts 278°
2026-05-04 13:07 47.45383 12.75826 33973 ft 420 kts 278°
2026-05-04 13:07 47.46366 12.67321 33968 ft 420 kts 278°
2026-05-04 13:08 47.47332 12.58870 33967 ft 420 kts 278°
2026-05-04 13:08 47.48297 12.50366 33964 ft 420 kts 278°
2026-05-04 13:09 47.49258 12.41853 33962 ft 420 kts 278°
2026-05-04 13:09 47.50211 12.33333 33953 ft 420 kts 277°
2026-05-04 13:10 47.51161 12.24803 33955 ft 420 kts 277°
2026-05-04 13:10 47.52106 12.16261 33944 ft 421 kts 277°
2026-05-04 13:11 47.53044 12.07715 33941 ft 421 kts 277°
2026-05-04 13:11 47.53977 11.99155 33943 ft 421 kts 278°
2026-05-04 13:12 47.55062 11.90626 33943 ft 422 kts 279°
2026-05-04 13:12 47.56236 11.82103 33944 ft 422 kts 279°
2026-05-04 13:13 47.57387 11.73577 33940 ft 422 kts 279°
2026-05-04 13:13 47.58503 11.65043 33940 ft 422 kts 279°
2026-05-04 13:14 47.59602 11.56491 33944 ft 422 kts 278°
2026-05-04 13:14 47.60699 11.47941 33941 ft 422 kts 278°
2026-05-04 13:15 47.61795 11.39389 33941 ft 422 kts 278°
2026-05-04 13:15 47.62880 11.30837 33951 ft 422 kts 278°
2026-05-04 13:16 47.63960 11.22280 33960 ft 422 kts 278°
2026-05-04 13:16 47.65024 11.13776 33970 ft 422 kts 278°
2026-05-04 13:17 47.66086 11.05221 33986 ft 422 kts 278°
2026-05-04 13:17 47.67145 10.96662 33989 ft 421 kts 278°
2026-05-04 13:18 47.68197 10.88117 34006 ft 421 kts 278°
2026-05-04 13:18 47.69242 10.79569 34004 ft 421 kts 278°
2026-05-04 13:19 47.70282 10.71025 34000 ft 421 kts 278°
2026-05-04 13:19 47.71310 10.62484 34001 ft 420 kts 277°
2026-05-04 13:20 47.72331 10.53942 33996 ft 420 kts 277°
2026-05-04 13:20 47.73323 10.45603 33988 ft 420 kts 277°
2026-05-04 13:21 47.74321 10.37123 33992 ft 420 kts 276°
2026-05-04 13:21 47.74548 10.32809 33818 ft 418 kts 267°
2026-05-04 13:21 47.74456 10.28497 33535 ft 418 kts 266°
2026-05-04 13:21 47.74349 10.24179 33271 ft 418 kts 266°
2026-05-04 13:22 47.74245 10.19866 32929 ft 417 kts 266°
2026-05-04 13:22 47.74143 10.15578 32386 ft 414 kts 266°
2026-05-04 13:22 47.74043 10.11319 31860 ft 411 kts 266°
2026-05-04 13:22 47.73943 10.07097 31331 ft 408 kts 265°
2026-05-04 13:23 47.73842 10.02895 30819 ft 406 kts 265°
2026-05-04 13:23 47.73740 9.98716 30309 ft 404 kts 265°
2026-05-04 13:23 47.73637 9.94553 29748 ft 401 kts 265°
2026-05-04 13:23 47.73534 9.90434 29234 ft 397 kts 265°
2026-05-04 13:24 47.73430 9.86348 28739 ft 394 kts 265°
2026-05-04 13:24 47.73326 9.82309 28244 ft 390 kts 265°
2026-05-04 13:24 47.73220 9.78293 27760 ft 387 kts 265°
2026-05-04 13:25 47.73007 9.70385 26829 ft 380 kts 265°
2026-05-04 13:25 47.72903 9.66481 26361 ft 376 kts 265°
2026-05-04 13:25 47.72797 9.62616 25919 ft 373 kts 265°
2026-05-04 13:25 47.72689 9.58789 25484 ft 370 kts 265°
2026-05-04 13:26 47.72582 9.54993 25056 ft 366 kts 265°
2026-05-04 13:26 47.72475 9.51224 24628 ft 363 kts 265°
2026-05-04 13:26 47.72331 9.47502 24207 ft 359 kts 260°
2026-05-04 13:26 47.71798 9.43918 23780 ft 354 kts 249°
2026-05-04 13:27 47.70833 9.40645 23321 ft 349 kts 239°
2026-05-04 13:27 47.69451 9.37662 22892 ft 344 kts 230°
2026-05-04 13:27 47.67948 9.34936 22472 ft 340 kts 230°
2026-05-04 13:27 47.66482 9.32268 22069 ft 336 kts 230°
2026-05-04 13:28 47.65012 9.29591 21650 ft 333 kts 230°
2026-05-04 13:28 47.63556 9.26943 21252 ft 330 kts 230°
2026-05-04 13:28 47.62109 9.24316 20834 ft 328 kts 229°
2026-05-04 13:28 47.60692 9.21684 20418 ft 326 kts 233°
2026-05-04 13:29 47.59575 9.18777 20012 ft 326 kts 244°
2026-05-04 13:29 47.58863 9.15592 19592 ft 327 kts 255°
2026-05-04 13:29 47.58449 9.12282 19169 ft 326 kts 257°
2026-05-04 13:29 47.58042 9.08983 18750 ft 326 kts 257°
2026-05-04 13:30 47.57780 9.05644 18324 ft 328 kts 266°
2026-05-04 13:30 47.57986 9.02267 17867 ft 331 kts 279°
2026-05-04 13:30 47.58677 8.99006 17463 ft 333 kts 289°
2026-05-04 13:30 47.59557 8.95846 17035 ft 331 kts 289°
2026-05-04 13:31 47.60421 8.92688 16624 ft 330 kts 289°
2026-05-04 13:31 47.61275 8.89534 16210 ft 330 kts 289°
2026-05-04 13:31 47.62124 8.86381 15805 ft 329 kts 287°
2026-05-04 13:31 47.62698 8.83134 15413 ft 324 kts 275°
2026-05-04 13:32 47.62769 8.79814 15018 ft 321 kts 263°
2026-05-04 13:32 47.62355 8.76590 14616 ft 318 kts 251°
2026-05-04 13:32 47.61547 8.73557 14217 ft 316 kts 246°
2026-05-04 13:32 47.60690 8.70554 13823 ft 316 kts 246°
2026-05-04 13:33 47.59841 8.67553 13382 ft 316 kts 247°
2026-05-04 13:33 47.59255 8.64426 12960 ft 316 kts 263°
2026-05-04 13:33 47.59350 8.61182 12558 ft 317 kts 280°
2026-05-04 13:33 47.60114 8.58128 12122 ft 319 kts 298°
2026-05-04 13:34 47.61491 8.55551 11677 ft 322 kts 315°
2026-05-04 13:34 47.63137 8.53301 11235 ft 322 kts 315°
2026-05-04 13:34 47.64784 8.51058 10827 ft 321 kts 315°
2026-05-04 13:34 47.66424 8.48820 10435 ft 320 kts 315°
2026-05-04 13:35 47.68051 8.46593 10172 ft 314 kts 315°
2026-05-04 13:35 47.71169 8.42327 9856 ft 297 kts 315°
2026-05-04 13:35 47.72661 8.40218 9483 ft 295 kts 309°
2026-05-04 13:36 47.73633 8.37649 9083 ft 289 kts 282°
2026-05-04 13:36 47.73730 8.34712 8544 ft 284 kts 256°
2026-05-04 13:36 47.72957 8.32089 8082 ft 278 kts 231°
2026-05-04 13:36 47.71668 8.29947 7642 ft 279 kts 226°
2026-05-04 13:37 47.70248 8.27984 7202 ft 280 kts 210°
2026-05-04 13:37 47.68401 8.27239 6748 ft 276 kts 176°
2026-05-04 13:37 47.66661 8.28137 6371 ft 261 kts 142°
2026-05-04 13:37 47.65762 8.29323 6116 ft 252 kts 137°
2026-05-04 13:38 47.64168 8.31663 5644 ft 237 kts 136°
2026-05-04 13:38 47.63012 8.33294 5330 ft 223 kts 136°
2026-05-04 13:38 47.61903 8.34823 5059 ft 211 kts 135°
2026-05-04 13:38 47.60853 8.36265 4792 ft 202 kts 135°
2026-05-04 13:39 47.59860 8.37630 4518 ft 188 kts 136°
2026-05-04 13:39 47.58932 8.38906 4269 ft 176 kts 136°
2026-05-04 13:39 47.58077 8.40080 4063 ft 163 kts 137°
2026-05-04 13:39 47.57267 8.41194 3836 ft 156 kts 136°
2026-05-04 13:40 47.56472 8.42285 3640 ft 156 kts 136°
2026-05-04 13:40 47.55680 8.43372 3434 ft 155 kts 136°
2026-05-04 13:40 47.54890 8.44456 3234 ft 155 kts 137°
2026-05-04 13:40 47.54100 8.45540 3030 ft 155 kts 137°
2026-05-04 13:41 47.53311 8.46621 2826 ft 155 kts 137°
2026-05-04 13:41 47.52521 8.47704 2621 ft 154 kts 137°
2026-05-04 13:41 47.51736 8.48779 2425 ft 154 kts 136°
2026-05-04 13:42 47.50171 8.50918 1996 ft 153 kts 135°
2026-05-04 13:42 47.49395 8.51989 1770 ft 153 kts 135°
2026-05-04 13:42 47.48621 8.53045 1566 ft 154 kts 136°
2026-05-04 13:42 47.47843 8.54112 1411 ft 144 kts 134°
2026-05-04 13:43 47.47227 8.54953 1383 ft 95 kts 137°
2026-05-04 13:43 47.46848 8.55471 1399 ft 50 kts 137°
2026-05-04 13:43 47.46599 8.55679 1394 ft 40 kts 167°
2026-05-04 13:43 47.46421 8.55737 1399 ft 19 kts 168°
2026-05-04 13:44 47.46330 8.55830 1407 ft 14 kts 141°
2026-05-04 13:44 47.46267 8.55915 1406 ft 11 kts 136°
2026-05-04 13:44 47.46207 8.55999 1410 ft 13 kts 137°
2026-05-04 13:44 47.46135 8.56096 1407 ft 15 kts 137°
2026-05-04 13:45 47.46049 8.56213 1409 ft 18 kts 134°
2026-05-04 13:45 47.45954 8.56316 1414 ft 16 kts 171°
2026-05-04 13:45 47.45839 8.56298 1415 ft 16 kts 187°
2026-05-04 13:45 47.45808 8.56293 1415 ft 1 kts 186°
2026-05-04 13:46 47.45774 8.56287 1419 ft 9 kts 186°
2026-05-04 13:46 47.45687 8.56275 1415 ft 14 kts 185°
2026-05-04 13:46 47.45593 8.56261 1412 ft 13 kts 186°
2026-05-04 13:46 47.45498 8.56237 1409 ft 14 kts 209°
2026-05-04 13:47 47.45483 8.56100 1407 ft 14 kts 276°
2026-05-04 13:47 47.45487 8.56044 1407 ft 0 kts 276°
2026-05-04 13:47 47.45487 8.56039 1407 ft 2 kts 271°
2026-05-04 13:47 47.45449 8.56008 1407 ft 11 kts 186°
2026-05-04 13:48 47.45420 8.56003 1407 ft 2 kts 186°
2026-05-04 13:48 47.45415 8.56002 1411 ft 0 kts 186°